This is the latest recevied weather packets stored in our database for station/object K7OWW-2. If no packets are shown the sender has not sent any weather packets the latest 10 day(s).
| Time | Temp. | Humidity | Pressure | Rain* | Wind** | Luminosity | Snow |
|---|---|---|---|---|---|---|---|
| 1788020040 | 11.67° C | 74% | 1015.8 hPa | 0 mm | - | - | - |
| 1788019738 | 11.11° C | 75% | 1015.9 hPa | 0 mm | - | - | - |
| 1788019138 | 11.11° C | 77% | 1015.8 hPa | 0 mm | - | - | - |
| 1788018538 | 10.56° C | 80% | 1016 hPa | 0 mm | - | - | - |
| 1788018240 | 10° C | 82% | 1015.9 hPa | 0 mm | - | - | - |
| 1788017959 | 9.44° C | 84% | 1016 hPa | 0 mm | - | - | - |
| 1788017338 | 8.33° C | 87% | 1016 hPa | 0 mm | - | - | - |
| 1788016738 | 7.22° C | 91% | 1016 hPa | 0 mm | - | - | - |
| 1788016440 | 6.67° C | 92% | 1016 hPa | 0 mm | - | - | - |
| 1788016138 | 6.67° C | 94% | 1016 hPa | 0 mm | - | - | - |
| 1788015538 | 5.56° C | 94% | 1015.9 hPa | 0 mm | - | - | - |
| 1788014938 | 4.44° C | 94% | 1016.1 hPa | 0 mm | - | - | - |
| 1788014338 | 3.89° C | 94% | 1016 hPa | 0 mm | - | - | - |
| 1788013738 | 3.89° C | 94% | 1015.9 hPa | 0 mm | - | - | - |
| 1788013138 | 3.33° C | 94% | 1015.9 hPa | 0 mm | - | - | - |
| 1788012840 | 3.33° C | 93% | 1015.9 hPa | 0 mm | - | - | - |
| 1788012542 | 3.33° C | 93% | 1015.9 hPa | 0 mm | - | - | - |
| 1788011938 | 3.33° C | 94% | 1015.9 hPa | 0 mm | - | - | - |
| 1788011338 | 3.89° C | 93% | 1015.8 hPa | 0 mm | - | - | - |
| 1788011040 | 3.89° C | 94% | 1015.8 hPa | 0 mm | - | - | - |
| 1788010738 | 3.89° C | 93% | 1015.7 hPa | 0 mm | - | - | - |
| 1788010138 | 3.89° C | 94% | 1015.6 hPa | 0 mm | - | - | - |
| 1788009538 | 3.89° C | 94% | 1015.6 hPa | 0 mm | - | - | - |
| 1788009240 | 3.89° C | 94% | 1015.4 hPa | 0 mm | - | - | - |
| 1788008938 | 3.89° C | 94% | 1015.4 hPa | 0 mm | - | - | - |
* Rain latest hour (hover to see other rain measurements)
** Current wind speed in m/s (hover to see current wind gust speed)